Location: Bois de la Silve
(44.4667°N, 6.7833°E)
Time: 00:04:06
(UTC+00:00)

USA 238 DEB - Pass Details

Date: 01 November 2020
Orbit: 1001 x 1211 km, 63.5° (Epoch: 22 November)

Event Time Altitude Azimuth Distance (km) Brightness Sun altitude
Exits shadow 01:35:53 18° 40° (NE) 2,366 5.9 -48.0°
Drops below altitude 10° 01:37:26 10° 39° (NE) 2,916 6.5 -47.7°
Sets 01:40:09 0° 39° (NE) 3,906 7.3 -47.3°
